Overview Statistics Trail Chart Weather Telemetry Raw packets
 

This is the latest recevied weather packets stored in our database for station/object NO9B. If no packets are shown the sender has not sent any weather packets the latest 10 day(s).

<< 35 36 37 38 39 40 41 >>
Time Temp. Humidity Pressure Rain* Wind** Luminosity Snow
1788422078 25° C 97% 1014.3 hPa 0 mm - 0 W/m² -
1788421773 25° C 97% 1014.5 hPa 0 mm - 0 W/m² -
1788421472 25° C 97% 1014.1 hPa 0 mm - 0 W/m² -
1788421168 25° C 97% 1014.4 hPa 0 mm - 0 W/m² -
1788420862 25° C 97% 1014.6 hPa 0 mm - 0 W/m² -
1788420558 25° C 97% 1014.5 hPa 0 mm - 0 W/m² -
1788420254 25° C 97% 1014.4 hPa 0 mm - 0 W/m² -
1788419951 25° C 97% 1014.6 hPa 0 mm - 0 W/m² -
1788419647 25° C 97% 1014.4 hPa 0.51 mm - 0 W/m² -
1788419343 25° C 97% 1014.6 hPa 3.56 mm - 0 W/m² -
1788419037 25° C 97% 1014.4 hPa 6.1 mm - 0 W/m² -
1788418731 25° C 97% 1014.6 hPa 1.27 mm - 0 W/m² -
1788418431 25° C 97% 1014.4 hPa 0 mm - 0 W/m² -
1788418130 25° C 97% 1014.6 hPa 0 mm - 0 W/m² -
1788417826 25° C 97% 1014.6 hPa 0 mm - 0 W/m² -
1788417522 25° C 97% 1014.7 hPa 0 mm - 0 W/m² -
1788417217 24.44° C 96% 1014.7 hPa 0 mm - 0 W/m² -
1788416912 25° C 96% 1014.7 hPa 0 mm - 0 W/m² -
1788416612 25° C 96% 1014.7 hPa 0 mm - 0 W/m² -
1788416309 25° C 96% 1014.6 hPa 0 mm - 0 W/m² -
1788416007 25° C 96% 1014.7 hPa 0 mm - 0 W/m² -
1788415704 25° C 96% 1014.8 hPa 0 mm - 0 W/m² -
1788415403 25° C 96% 1014.8 hPa 0 mm - 0 W/m² -
1788415101 25° C 96% 1014.7 hPa 0 mm - 0 W/m² -
1788414799 25° C 96% 1014.6 hPa 0 mm - 0 W/m² -

* Rain latest hour (hover to see other rain measurements)
** Current wind speed in m/s (hover to see current wind gust speed)